Wetbulb
47.50 47.44 48.42 50.39 52.04 52.63 48.97 39.58 31.52 38.18 39.34 31.14 28.55 25.79 27.76 34.71 31.59 31.34 29.93 27.21 28.82 25.40 26.42 27.16 25.53 28.30 32.05 37.67 36.70 30.65 34.32 29.17 22.17 24.11 31.23 34.41 33.04 29.59 27.25 20.28 17.22 20.10 18.73 19.36
47.54 47.58 48.31 51.18 52.33 52.21 45.53 39.54 35.71 38.36 38.69 19.55 19.92 27.13 29.83 31.45 30.26 29.67 29.85 28.71 29.22 31.98 27.61 25.71 28.79 29.70 35.65 37.56 35.20 31.99 32.82 26.73 19.18 18.86 23.93 30.75 26.07 27.61 27.70 25.35 22.61 18.82 16.43 18.87
46.99 47.00 47.13 48.57 49.42 51.15 45.28 35.34 31.15 35.96 31.75 30.07 27.71 26.58 28.06 27.11 32.32 30.92 30.18 28.45 30.34 29.37 24.49 27.43 27.42 29.18 33.30 33.52 33.88 36.03 34.51 28.47 23.50 16.47 20.68 24.03 23.51 25.41 26.74 23.14 19.03 18.20 19.28 20.64
47.31 46.94 46.67 47.15 47.65 49.16 44.34 33.84 29.39 32.40 21.32 21.38 24.06 29.94 29.13 26.33 23.46 31.03 30.67 27.92 28.11 27.18 23.50 25.39 26.24 28.85 29.15 31.52 33.88 32.15 31.58 22.88 24.56 25.80 26.19 26.20 25.13 24.68 25.06 22.47 22.53 19.77 21.52 22.45
47.87 47.47 47.31 47.88 46.98 48.19 36.91 30.33 32.41 33.19 31.58 31.90 27.53 25.67 26.58 23.82 26.46 27.40 22.73 26.68 28.82 27.67 24.33 23.82 23.84 27.57 27.04 27.20 28.90 27.62 29.77 21.23 24.94 22.71 25.70 25.63 23.45 24.57 23.45 23.92 23.89 23.04 24.53 23.91
46.90 46.79 47.11 48.04 47.07 43.55 35.92 37.87 36.92 34.60 27.09 20.16 26.99 27.03 27.90 27.52 28.13 27.89 31.85 28.58 26.73 24.08 26.17 32.77 31.61 32.38 32.13 30.70 28.01 25.65 27.53 21.12 13.85 15.38 21.78 21.87 15.28 20.44 25.05 25.69 27.77 27.00 21.97 26.38
48.04 48.16 47.65 47.15 47.16 42.30 36.24 35.13 34.51 30.87 22.73 24.99 23.17 27.53 27.98 26.12 26.78 25.38 28.24 28.09 24.66 29.13 33.92 33.48 31.07 30.50 29.85 30.13 28.96 30.59 26.25 24.41 23.30 15.42 15.25 5.99 19.44 26.96 29.62 26.27 26.55 26.18 25.99 26.26
46.55 46.66 46.71 46.95 47.89 45.68 35.90 34.99 32.37 32.11 25.32 28.24 24.64 21.84 23.73 24.99 25.49 24.25 26.17 28.06 31.38 31.34 27.44 24.16 13.36 15.36 16.09 19.49 24.28 24.28 28.40 25.12 19.81 16.04 11.05 15.62 21.78 24.73 25.07 23.30 21.12 23.06 22.12 22.06
45.24 44.98 44.97 45.27 46.40 46.41 40.64 38.10 39.99 35.49 28.89 19.58 26.89 21.88 19.64 21.10 25.07 20.93 24.40 28.82 29.18 26.68 26.64 17.98 6.48 7.43 10.43 12.88 18.11 22.20 26.71 27.18 20.80 9.72 6.42 2.56 17.76 25.51 29.04 28.08 18.26 21.90 20.62 20.21
44.45 45.40 45.21 44.99 44.57 44.72 40.93 38.96 41.12 36.59 29.68 27.24 26.32 26.80 27.32 28.22 25.95 23.04 17.39 21.09 25.04 25.60 14.56 10.80 7.71 8.80 13.43 11.74 10.65 13.64 11.27 16.17 16.21 16.74 16.06 12.67 19.94 19.21 23.91 18.95 12.72 19.30 19.18 19.07
44.40 44.60 44.74 45.20 45.80 46.03 43.20 38.19 40.06 37.62 32.47 32.95 31.13 32.22 29.88 30.59 28.23 23.60 20.94 24.64 19.28 15.95 13.03 15.90 14.71 18.80 16.33 17.84 17.89 20.31 15.55 16.47 14.25 15.43 12.73 9.39 16.82 19.67 15.64 14.11 18.77 17.73 16.57 16.73
43.74 43.86 44.06 44.29 44.61 45.20 44.36 38.93 40.34 41.67 36.21 33.54 34.78 35.25 36.49 36.23 34.52 31.32 30.45 26.76 21.50 27.10 23.62 21.17 22.53 16.27 10.62 14.22 11.51 17.14 15.46 18.51 18.75 18.85 15.01 17.25 16.11 13.71 15.75 15.51 14.21 14.68 13.98 14.91
43.48 44.47 44.72 45.10 45.78 44.62 43.36 40.61 36.27 36.23 33.00 33.06 32.33 27.11 30.82 33.77 32.16 35.72 29.73 24.27 24.65 26.31 30.55 26.82 20.51 18.36 19.01 11.97 12.29 15.09 16.09 13.51 16.96 17.73 11.79 12.98 12.18 14.19 13.11 13.10 12.09 12.92 13.60 13.42
43.68 43.74 43.87 45.13 45.88 45.52 43.40 39.50 39.79 38.80 33.38 27.89 24.31 30.88 26.60 29.02 30.83 34.38 35.10 31.99 31.59 30.36 28.83 24.81 21.71 18.52 24.71 16.69 18.34 10.58 8.06 9.75 7.91 14.06 10.74 11.97 14.57 11.43 9.94 9.98 11.64 10.62 11.04 13.01
42.90 43.30 43.74 44.33 45.96 46.42 42.86 40.30 39.82 40.70 35.33 28.21 27.81 31.98 25.44 25.69 24.15 24.79 24.73 22.26 19.90 23.68 19.73 16.42 18.51 20.59 22.45 17.57 10.49 3.36 7.91 4.51 3.82 5.54 8.08 6.15 8.79 11.27 9.78 7.30 6.89 8.55 9.78 10.22
42.56 42.85 43.29 44.10 45.30 45.74 40.43 32.95 38.30 40.84 39.83 30.37 22.52 21.50 18.59 22.36 23.30 23.64 21.19 26.08 24.25 23.73 15.85 15.91 20.46 23.93 21.08 8.72 2.28 7.97 9.03 9.39 9.35 6.57 7.92 7.72 9.35 9.49 8.94 6.63 7.15 7.60 9.82 10.14
41.97 42.22 42.91 43.33 43.74 39.50 34.56 32.11 36.97 41.91 39.12 30.12 19.74 17.06 21.22 18.63 19.93 19.08 18.80 26.79 26.69 21.66 14.57 15.34 21.84 14.02 12.65 6.27 0.79 7.17 7.63 7.40 6.77 7.00 6.41 4.97 4.80 4.41 7.26 7.63 7.16 9.84 9.42 10.73
41.38 41.85 42.89 43.27 42.75 39.41 33.20 35.82 38.88 39.05 33.00 27.83 9.40 14.18 17.89 20.65 16.55 16.41 16.10 15.71 17.11 16.99 17.15 22.13 15.58 10.22 3.92 -2.46 5.02 5.65 6.88 6.07 6.01 6.55 7.43 6.56 7.74 8.30 8.51 8.94 8.43 7.14 7.42 8.70
41.13 42.09 41.59 34.86 32.23 28.80 31.81 39.29 37.91 36.83 30.45 13.56 11.52 15.57 12.44 20.15 14.91 14.93 19.80 18.30 9.23 18.20 15.04 17.12 14.24 4.26 -1.88 2.42 1.39 4.34 5.80 5.12 5.85 8.29 9.07 8.44 7.50 7.60 7.81 8.13 7.51 6.61 6.71 8.09
39.21 33.41 25.85 25.49 30.82 37.49 35.66 23.13 16.31 17.21 14.34 14.03 12.89 17.33 13.23 17.74 13.65 12.64 13.49 14.45 13.00 8.12 16.12 15.72 4.77 2.91 5.12 2.91 2.66 4.61 6.46 7.03 7.45 4.51 4.06 5.35 5.13 5.82 6.06 6.33 7.29 7.50 7.28 7.65
28.92 26.89 22.66 32.28 34.35 28.11 14.02 9.88 12.27 9.84 10.56 19.02 20.92 14.66 15.55 18.19 13.88 13.76 17.25 5.96 9.96 5.18 12.49 10.22 4.76 0.44 -2.83 2.54 2.70 4.31 5.78 5.95 6.70 6.52 6.34 5.91 5.52 4.30 4.29 4.95 5.88 6.55 6.74 6.00
30.59 31.94 32.77 25.54 16.10 11.77 11.16 5.65 10.07 11.31 13.89 16.90 14.38 13.73 15.93 15.13 18.32 12.60 13.33 8.80 8.50 3.54 13.35 5.50 -3.55 -3.39 1.07 0.86 0.95 2.86 3.84 3.98 4.33 4.73 3.74 4.22 4.99 4.55 4.02 4.16 4.30 4.59 5.55 5.80
33.05 30.09 22.15 15.47 11.75 11.01 5.59 4.07 8.43 7.19 15.27 9.99 10.20 7.75 10.30 15.57 16.47 10.58 12.10 8.24 5.62 14.69 3.02 -3.04 -6.08 1.54 2.41 1.73 1.58 3.07 4.40 3.55 3.21 2.68 2.65 2.82 2.88 3.85 2.56 2.03 3.66 3.77 3.06 3.41
19.51 14.30 11.89 12.74 6.96 7.37 10.46 10.36 9.82 12.56 11.62 8.33 4.60 4.58 8.92 13.11 12.43 8.79 8.99 12.44 11.63 5.45 -5.53 -7.26 -1.96 0.03 1.24 3.16 3.36 2.15 1.54 2.10 1.57 1.40 1.26 0.69 0.86 0.76 1.22 1.75 1.67 0.89 0.96 1.47
18.27 16.49 11.91 9.51 13.55 8.65 2.75 1.66 8.09 6.52 4.90 1.10 -0.55 4.21 8.73 7.05 7.03 10.54 6.25 3.72 -5.86 -6.36 -5.09 -1.53 0.54 3.52 3.64 3.57 4.52 3.89 2.46 2.28 1.92 1.86 1.33 0.67 -0.14 -0.84 -1.70 -2.72 -2.24 -0.77 -0.55 -0.23
13.96 11.29 11.46 15.46 13.54 4.58 2.05 -2.08 -1.39 0.25 -2.72 -0.56 -0.56 -4.60 2.55 3.06 1.87 0.54 -9.90 -7.96 -10.55 -4.32 -0.74 2.49 2.97 2.91 2.67 2.92 4.14 5.57 5.00 4.19 3.64 2.65 2.02 1.16 -1.25 -2.83 -4.21 -4.63 -5.52 -4.47 -2.03 -3.49
9.40 6.59 12.92 9.83 6.63 2.73 -1.25 -5.04 -3.76 -3.79 -5.03 -3.15 -8.92 -1.81 0.51 0.52 -6.23 -8.96 -2.04 -8.01 -2.72 -0.31 3.12 4.92 2.76 0.69 0.36 1.99 3.53 4.37 4.32 3.94 2.86 1.58 1.57 -0.16 -1.21 -3.71 -2.80 -5.16 -4.32 -6.23 -2.34 -5.24
MSLP
1022.49 1022.05 1021.66 1021.10 1020.36 1019.67 1019.64 1020.27 1021.10 1020.94 1020.70 1021.33 1021.98 1021.90 1020.91 1019.68 1018.49 1017.85 1017.73 1017.66 1018.07 1017.91 1017.69 1017.22 1016.47 1015.33 1014.48 1014.01 1014.16 1014.05 1013.64 1013.74 1013.05 1012.21 1010.70 1011.07 1011.23 1011.63 1011.99 1012.17 1011.68 1011.30 1010.18 1005.59
1022.69 1022.34 1021.91 1020.98 1020.30 1020.12 1020.34 1020.85 1021.23 1020.92 1020.93 1022.17 1022.56 1021.78 1021.07 1019.92 1018.94 1018.34 1018.22 1018.18 1017.85 1017.93 1018.07 1017.66 1016.64 1015.58 1014.68 1014.24 1014.41 1014.45 1014.39 1014.05 1013.48 1012.49 1011.94 1012.20 1012.01 1011.68 1011.89 1012.36 1012.19 1011.05 1010.37 1006.41
1022.73 1022.48 1022.07 1021.31 1020.84 1020.58 1020.58 1021.41 1021.75 1021.62 1021.93 1022.68 1022.86 1022.33 1021.25 1020.53 1019.37 1018.81 1018.50 1018.43 1018.25 1018.35 1017.90 1017.67 1016.84 1016.09 1014.91 1014.53 1014.49 1014.46 1014.91 1014.09 1013.99 1013.41 1012.93 1012.73 1012.42 1011.97 1011.81 1012.48 1012.27 1011.09 1010.26 1008.24
1022.98 1022.88 1022.57 1022.00 1021.46 1020.78 1021.06 1022.08 1022.87 1023.27 1023.11 1023.16 1023.21 1022.83 1021.90 1021.41 1020.80 1019.91 1019.43 1018.96 1018.91 1019.02 1018.17 1017.70 1017.19 1016.33 1015.69 1015.05 1014.57 1014.91 1015.16 1014.34 1014.13 1013.58 1013.25 1013.02 1012.64 1012.39 1011.71 1011.84 1011.99 1011.68 1009.95 1009.89
1022.97 1022.83 1022.88 1022.44 1021.55 1020.94 1021.82 1023.01 1023.39 1023.54 1023.47 1023.13 1022.95 1022.87 1022.31 1021.93 1021.40 1021.12 1020.06 1019.64 1019.61 1019.49 1019.10 1018.76 1017.49 1017.14 1016.70 1015.80 1015.12 1015.02 1014.85 1014.47 1014.24 1013.77 1013.41 1013.03 1012.52 1011.92 1011.72 1011.40 1011.25 1011.26 1010.76 1010.35
1023.21 1023.07 1022.98 1022.74 1022.15 1021.62 1022.61 1023.13 1023.38 1023.65 1023.50 1023.57 1023.40 1023.11 1022.73 1022.24 1021.80 1020.98 1020.69 1020.12 1019.83 1019.26 1018.77 1018.33 1017.77 1017.09 1016.43 1015.93 1015.55 1015.42 1015.15 1014.79 1014.91 1013.93 1013.71 1013.33 1012.60 1011.55 1011.37 1011.49 1011.89 1012.16 1012.04 1011.94
1023.16 1023.00 1022.93 1022.77 1022.41 1022.49 1023.16 1023.57 1023.72 1023.96 1023.90 1023.43 1023.63 1023.48 1023.29 1022.84 1022.36 1021.76 1020.71 1020.26 1019.97 1019.05 1018.56 1017.93 1016.89 1016.28 1015.75 1015.55 1015.18 1015.28 1015.02 1015.33 1015.15 1014.73 1014.58 1013.90 1012.11 1011.87 1011.86 1012.22 1013.04 1013.33 1013.38 1013.15
1023.41 1023.19 1023.14 1023.04 1022.66 1022.58 1023.08 1023.34 1023.59 1023.80 1023.92 1023.51 1023.56 1023.42 1023.20 1022.78 1022.26 1021.83 1020.83 1020.01 1019.72 1019.51 1019.06 1018.64 1017.82 1016.96 1016.45 1015.61 1015.37 1015.23 1015.08 1015.26 1015.23 1015.30 1015.18 1014.00 1012.88 1012.98 1013.13 1013.42 1014.51 1015.11 1014.99 1014.45
1023.40 1023.32 1023.17 1023.04 1022.95 1022.54 1022.92 1023.03 1022.93 1023.29 1023.84 1023.26 1022.74 1023.00 1023.27 1023.25 1022.61 1022.19 1020.92 1019.97 1019.80 1019.77 1019.95 1019.94 1019.93 1019.30 1018.33 1017.44 1016.06 1015.70 1015.53 1015.52 1015.86 1016.00 1016.10 1015.51 1014.65 1014.26 1014.22 1014.34 1015.64 1016.68 1016.85 1016.33
1023.23 1022.97 1022.85 1022.98 1022.60 1022.47 1022.56 1022.68 1022.68 1023.04 1023.29 1022.65 1022.77 1022.80 1022.66 1022.42 1022.16 1021.89 1021.15 1020.87 1020.49 1020.50 1021.14 1020.91 1020.61 1019.91 1019.15 1018.67 1017.97 1017.09 1016.83 1016.37 1016.39 1016.23 1016.43 1016.46 1016.65 1016.36 1015.64 1016.92 1019.12 1018.60 1018.72 1018.31
1023.26 1023.01 1022.74 1022.82 1022.51 1022.12 1022.22 1022.39 1022.31 1022.72 1022.74 1022.07 1021.92 1021.92 1022.06 1021.85 1021.79 1021.61 1021.04 1021.24 1021.41 1021.23 1021.33 1021.18 1020.71 1020.47 1019.96 1019.51 1018.65 1018.21 1018.13 1017.68 1017.43 1017.47 1018.01 1018.83 1018.74 1017.84 1018.96 1021.33 1020.53 1020.60 1020.28 1019.81
1023.02 1022.89 1022.71 1022.54 1022.32 1021.98 1021.86 1021.87 1021.80 1022.01 1022.42 1021.69 1021.27 1021.01 1020.79 1020.95 1021.11 1021.34 1021.15 1021.40 1021.39 1021.16 1021.11 1021.12 1020.86 1020.78 1020.58 1020.40 1020.04 1019.10 1019.49 1019.88 1019.56 1019.79 1020.26 1021.16 1021.90 1022.29 1023.13 1023.10 1022.57 1022.05 1021.79 1021.08
1022.82 1022.53 1022.18 1022.02 1021.86 1021.65 1021.52 1021.60 1021.98 1022.19 1022.31 1021.41 1021.35 1020.82 1020.88 1020.89 1021.16 1021.04 1021.33 1021.48 1021.36 1021.41 1021.21 1021.01 1020.83 1020.63 1020.49 1020.76 1020.70 1020.77 1021.14 1021.52 1021.14 1021.45 1022.45 1022.91 1023.59 1023.93 1024.26 1024.21 1023.88 1023.39 1022.85 1022.23
1022.36 1022.21 1022.01 1021.65 1021.42 1021.23 1021.07 1021.54 1021.59 1021.92 1021.95 1022.08 1021.37 1021.15 1021.34 1021.43 1021.31 1021.11 1021.28 1021.51 1021.56 1021.66 1021.63 1021.49 1021.07 1020.91 1020.50 1020.78 1021.70 1023.41 1025.28 1024.49 1024.29 1023.65 1024.02 1024.06 1024.14 1024.91 1025.22 1024.88 1024.47 1024.02 1023.65 1022.81
1022.24 1021.92 1021.64 1021.21 1020.83 1020.53 1020.89 1021.46 1021.78 1021.71 1021.96 1022.00 1021.69 1021.61 1022.05 1021.91 1021.89 1021.86 1021.90 1022.09 1022.31 1022.31 1022.23 1022.11 1021.62 1021.08 1021.07 1021.90 1023.96 1026.52 1027.61 1027.74 1027.48 1026.78 1027.17 1027.45 1026.30 1026.16 1026.25 1025.79 1025.41 1024.82 1023.92 1023.05
1021.81 1021.56 1021.28 1020.79 1020.41 1020.11 1020.79 1021.74 1022.04 1021.83 1021.89 1022.35 1022.60 1022.62 1022.58 1022.34 1022.19 1022.10 1022.25 1022.47 1022.57 1022.75 1022.90 1022.58 1021.93 1022.03 1022.41 1024.26 1026.57 1028.47 1028.97 1029.10 1029.03 1028.78 1028.37 1028.00 1027.56 1027.14 1026.99 1026.55 1025.95 1025.36 1024.50 1023.72
1021.53 1021.24 1020.90 1020.69 1020.65 1020.88 1021.48 1022.20 1022.30 1021.84 1021.98 1022.73 1023.27 1023.13 1023.02 1022.99 1022.76 1022.58 1022.77 1022.41 1022.58 1022.82 1023.00 1022.84 1022.88 1023.83 1024.65 1026.64 1028.51 1029.40 1029.66 1029.74 1029.69 1029.47 1028.89 1028.31 1028.17 1028.00 1027.44 1026.94 1026.25 1025.54 1024.80 1024.10
1021.29 1021.05 1020.80 1021.04 1021.15 1021.55 1021.97 1022.46 1022.35 1022.17 1022.51 1023.27 1023.99 1024.24 1023.70 1023.44 1023.56 1023.55 1023.23 1023.28 1023.20 1022.99 1023.03 1023.11 1024.22 1025.72 1027.08 1029.22 1030.20 1030.40 1030.36 1030.14 1030.00 1029.83 1029.65 1029.53 1028.93 1028.25 1027.67 1027.09 1026.38 1025.68 1025.03 1024.34
1021.09 1021.06 1021.18 1021.71 1022.27 1022.54 1022.64 1022.29 1022.29 1022.36 1022.99 1023.76 1024.69 1025.11 1024.85 1023.90 1024.28 1024.17 1023.73 1023.76 1024.14 1023.48 1023.70 1024.24 1025.46 1027.84 1029.91 1031.15 1031.31 1031.21 1031.08 1030.99 1030.66 1030.18 1029.84 1029.50 1029.08 1028.60 1028.06 1027.50 1026.87 1026.38 1025.75 1025.01
1021.21 1021.57 1022.08 1022.84 1023.00 1022.66 1022.54 1023.00 1023.25 1023.64 1024.69 1024.61 1025.51 1025.52 1025.43 1025.21 1025.03 1024.67 1024.80 1024.68 1024.67 1024.43 1024.39 1024.94 1027.05 1029.77 1031.46 1032.15 1032.09 1031.98 1031.70 1031.36 1031.03 1030.62 1030.15 1029.92 1029.59 1029.23 1028.74 1028.29 1027.82 1027.29 1026.70 1025.93
1021.99 1022.60 1022.80 1022.97 1022.92 1022.97 1023.94 1024.72 1025.50 1025.95 1026.33 1025.96 1026.12 1026.15 1026.24 1025.43 1025.86 1025.53 1025.29 1025.53 1025.46 1025.56 1025.29 1026.06 1028.68 1031.12 1032.53 1032.85 1032.78 1032.59 1032.29 1031.95 1031.63 1031.47 1031.21 1030.93 1030.64 1030.25 1029.70 1029.08 1028.60 1028.05 1027.48 1026.89
1022.08 1022.28 1022.84 1023.34 1024.18 1024.84 1025.71 1026.90 1027.24 1027.19 1027.34 1027.15 1026.90 1026.81 1026.28 1025.85 1025.73 1025.85 1025.89 1026.10 1026.28 1026.19 1026.22 1027.72 1030.55 1032.67 1033.35 1033.46 1033.32 1033.03 1032.81 1032.55 1032.25 1032.00 1031.75 1031.44 1031.15 1030.89 1030.52 1030.04 1029.44 1028.92 1028.37 1027.75
1022.17 1022.64 1023.69 1024.48 1025.65 1026.74 1027.24 1028.08 1028.49 1028.55 1028.44 1028.78 1028.51 1027.88 1026.84 1026.09 1026.00 1026.21 1026.55 1026.76 1026.77 1026.62 1027.93 1030.29 1032.48 1033.40 1033.75 1033.81 1033.69 1033.35 1033.12 1032.96 1032.74 1032.48 1032.22 1031.98 1031.73 1031.40 1031.16 1030.79 1030.32 1029.81 1029.26 1028.72
1022.85 1023.78 1025.14 1025.79 1026.65 1027.45 1028.03 1028.64 1029.07 1029.55 1029.69 1029.78 1029.63 1028.92 1027.83 1026.79 1026.57 1026.96 1027.28 1027.16 1027.50 1028.54 1030.21 1031.90 1033.23 1033.80 1034.01 1033.96 1033.83 1033.60 1033.38 1033.25 1033.17 1032.99 1032.73 1032.52 1032.35 1032.12 1031.84 1031.51 1031.13 1030.66 1030.16 1029.67
1023.63 1024.63 1025.89 1026.80 1027.28 1028.31 1029.29 1030.04 1030.54 1031.06 1031.06 1031.17 1030.80 1030.08 1029.34 1028.48 1028.12 1028.07 1028.45 1028.83 1030.15 1031.41 1032.28 1033.24 1033.89 1034.21 1034.31 1034.13 1033.83 1033.68 1033.54 1033.38 1033.29 1033.27 1033.13 1032.96 1032.82 1032.68 1032.47 1032.14 1031.77 1031.30 1030.85 1030.38
1024.65 1025.76 1026.85 1027.26 1028.35 1029.99 1030.93 1031.67 1032.27 1032.58 1032.57 1032.47 1032.33 1031.75 1030.73 1030.54 1030.42 1030.55 1031.35 1032.17 1032.59 1033.36 1033.77 1034.12 1034.40 1034.66 1034.74 1034.55 1034.19 1033.86 1033.65 1033.49 1033.41 1033.40 1033.41 1033.35 1033.28 1033.19 1033.06 1032.59 1032.19 1031.83 1031.42 1031.04
1026.21 1027.26 1027.54 1028.29 1029.46 1030.76 1032.12 1033.05 1033.55 1033.52 1033.75 1034.06 1033.65 1033.43 1032.28 1031.98 1032.42 1033.29 1033.68 1034.34 1034.94 1035.12 1034.95 1034.93 1035.02 1035.20 1035.13 1034.81 1034.48 1034.20 1033.93 1033.66 1033.55 1033.50 1033.48 1033.58 1033.54 1033.31 1033.06 1032.90 1032.63 1032.24 1031.87 1031.45
Wind_Speed
16 16 16 19 16 2 3 2 3 4 3 3 1 2 4 5 6 1 4 1 1 4 4 5 4 6 4 4 3 5 1 3 4 8 13 6 3 4 3 1 4 4 7 9
16 17 17 17 19 3 1 2 2 2 1 1 3 5 5 5 4 3 3 4 6 0 4 5 4 4 4 5 3 3 3 3 5 6 4 4 5 1 3 2 5 8 8 8
16 16 17 17 17 14 3 2 3 2 4 1 1 5 8 5 7 5 4 5 3 3 5 6 6 4 3 5 2 3 5 3 6 7 7 2 8 14 12 3 7 10 12 24
13 16 16 18 18 13 3 3 2 2 5 4 2 2 6 8 7 5 5 4 4 6 4 5 6 6 4 8 7 2 4 5 6 12 12 10 12 14 18 14 14 11 16 16
14 12 14 17 19 10 5 2 2 0 4 3 2 3 3 4 4 4 8 4 9 13 12 11 23 18 7 8 4 3 3 5 2 11 10 11 13 15 12 16 16 10 9 9
11 11 12 12 15 8 3 1 2 0 3 2 3 4 4 10 12 6 4 10 14 12 12 9 15 14 14 11 9 5 4 0 2 9 4 6 7 3 3 4 2 4 4 8
13 12 10 8 7 6 3 1 2 1 4 2 2 6 11 8 7 8 11 6 3 5 7 14 12 15 17 15 16 13 11 7 3 3 3 3 2 2 2 3 8 11 10 12
11 12 13 13 13 3 3 1 3 1 4 4 6 3 4 8 8 6 6 5 4 7 7 6 7 6 6 4 2 4 11 8 3 3 4 6 2 4 3 2 5 11 13 14
10 11 11 11 12 7 2 2 2 1 2 5 4 2 3 4 4 5 6 4 4 3 2 3 3 3 4 7 8 3 1 5 2 2 3 5 1 4 10 9 2 13 13 12
7 8 7 8 7 8 2 2 3 1 3 4 4 2 3 3 3 4 4 6 7 4 2 1 2 5 2 3 3 5 3 2 3 7 5 3 9 17 11 2 4 12 11 12
11 12 12 13 12 10 1 3 5 4 2 6 7 3 4 4 2 4 4 2 4 3 2 1 3 3 4 3 3 2 4 1 2 2 2 4 18 3 6 7 8 9 12 12
10 10 10 10 11 11 7 3 1 3 3 6 5 7 10 11 11 5 2 2 3 2 2 2 2 3 2 2 5 3 4 5 4 4 2 6 7 11 6 9 9 10 12 14
10 12 13 13 12 9 6 2 1 1 2 4 2 4 3 3 3 3 3 2 2 2 2 2 3 5 2 2 5 3 5 10 3 3 5 5 6 5 10 10 11 13 13 14
12 11 14 15 13 8 5 2 2 1 0 3 5 2 2 3 4 3 1 1 2 2 1 2 3 3 2 2 2 5 4 10 9 1 5 5 2 13 13 15 13 14 13 13
12 14 15 14 15 9 2 2 2 1 1 3 5 2 3 3 3 4 4 4 2 1 2 1 3 3 3 4 5 4 5 4 4 3 5 4 9 13 14 14 12 15 15 15
12 13 12 11 11 3 3 2 2 3 2 1 4 2 5 4 5 4 2 1 1 1 1 3 3 4 5 4 3 2 3 5 4 5 11 10 9 9 12 11 13 14 12 13
13 11 9 7 8 5 3 2 3 5 1 0 4 5 3 2 2 2 2 1 1 2 2 2 1 5 5 3 2 8 8 7 1 4 8 3 5 7 13 11 12 13 9 9
12 7 4 14 17 10 4 3 5 4 3 2 1 5 4 4 3 3 1 2 3 2 2 2 3 4 4 4 3 5 7 7 2 9 4 4 9 8 9 9 9 11 12 12
8 2 9 5 5 3 1 7 4 2 2 3 3 1 4 3 2 2 2 2 3 2 1 2 3 2 5 3 4 6 6 5 8 9 7 7 8 10 11 11 12 11 13 12
4 5 5 2 1 7 3 6 4 5 5 4 2 0 3 3 2 3 2 2 1 2 1 3 4 3 3 3 3 4 6 6 7 5 8 10 9 11 11 11 10 10 11 11
4 2 1 1 5 2 4 3 4 3 5 3 1 2 1 2 1 3 1 2 2 2 3 3 2 2 3 6 6 5 6 6 6 5 5 6 6 8 9 11 11 11 11 12
4 2 3 3 5 4 6 1 3 3 1 3 1 2 3 3 1 2 2 1 2 4 1 4 2 2 3 5 5 5 6 7 6 6 7 7 7 8 8 8 10 10 10 11
2 2 3 4 3 6 5 1 4 2 2 3 4 5 2 3 1 0 2 1 4 1 4 2 2 2 4 5 4 5 5 6 6 7 6 6 6 7 6 8 9 9 9 10
3 4 1 2 3 2 4 4 3 1 2 1 1 4 2 2 1 1 0 2 1 2 1 1 1 2 5 5 4 3 5 6 5 6 6 6 7 6 6 7 7 7 9 10
2 4 3 2 3 3 1 1 2 2 1 3 3 3 0 3 2 1 3 4 1 1 1 1 1 3 4 5 5 4 4 4 4 4 5 6 6 5 6 6 6 6 6 8
4 4 3 0 2 2 3 2 0 1 1 1 2 1 3 2 1 4 1 1 4 1 1 1 2 3 4 5 6 6 3 4 4 3 3 4 5 5 5 6 6 6 5 6
4 0 2 2 3 3 2 2 2 1 3 1 2 2 6 1 4 1 1 3 0 2 2 2 1 2 4 4 5 5 5 4 4 3 2 3 4 4 4 7 7 6 6 4
Wind_Direction
16 8 357 351 345 146 63 44 342 310 336 354 8 252 219 304 280 54 291 295 252 245 289 261 261 250 247 63 38 299 125 302 275 238 271 179 359 170 159 233 300 276 256 270
19 15 5 12 14 15 34 335 282 314 24 23 317 293 292 268 313 331 311 257 218 60 282 303 273 285 285 183 115 325 356 231 297 327 19 51 238 261 221 279 248 243 262 276
21 15 12 9 9 11 67 54 339 358 53 105 270 322 312 316 342 279 285 282 332 286 257 230 276 267 299 352 270 317 331 228 224 246 251 310 298 309 294 229 273 287 268 295
26 15 9 11 3 357 81 21 309 82 302 327 293 277 288 316 309 352 312 323 231 316 289 294 250 270 314 285 270 171 232 260 241 257 262 264 269 268 286 279 256 261 291 293
17 17 7 2 8 3 71 68 15 188 282 232 280 329 314 289 312 294 293 243 332 310 294 273 285 276 297 264 321 232 221 256 260 278 263 259 266 265 254 264 278 266 286 304
14 7 2 11 11 40 78 10 59 89 281 335 314 329 352 330 322 290 287 303 314 307 293 305 294 270 266 250 257 248 245 247 36 275 275 304 289 242 254 283 90 289 329 353
22 11 1 2 28 80 122 215 107 16 286 305 281 330 307 291 302 283 284 299 252 266 298 293 276 263 260 260 257 245 256 262 223 263 44 263 226 114 55 111 44 33 351 348
7 10 2 1 9 138 94 148 94 34 282 261 311 289 264 299 295 272 264 265 235 318 312 312 343 329 352 299 208 252 237 244 247 246 204 303 44 31 10 318 81 27 354 347
360 360 353 344 347 41 107 226 171 192 282 265 214 265 220 278 297 305 268 299 310 359 290 7 346 287 246 310 331 10 54 229 216 60 158 221 259 341 339 304 188 13 360 349
339 328 323 334 335 331 129 265 168 137 253 267 140 298 301 206 238 246 295 309 342 32 353 296 239 270 213 311 296 331 345 342 258 253 238 296 357 313 310 203 308 356 359 346
342 343 340 334 341 337 323 236 181 178 237 270 208 214 228 276 223 260 273 324 336 354 20 238 305 329 306 293 249 260 276 7 270 307 318 278 347 355 36 333 327 349 348 338
341 343 336 319 312 322 328 229 192 146 249 268 218 215 236 238 255 268 239 231 202 290 310 265 260 288 330 233 303 320 316 2 308 350 41 63 30 68 22 350 334 344 333 334
335 335 338 320 298 291 300 241 159 78 250 270 332 293 354 37 10 226 281 310 242 309 323 321 258 253 111 263 260 284 29 14 9 236 31 2 42 36 19 354 341 337 340 327
339 333 324 327 314 267 273 194 149 190 275 287 281 340 32 321 2 57 358 339 5 329 313 261 257 242 208 251 58 60 345 335 334 14 18 324 157 23 1 344 344 340 335 334
326 328 324 320 308 267 90 80 44 342 270 309 297 284 347 327 26 49 44 71 65 337 321 261 254 257 311 74 82 48 355 351 345 302 16 278 288 345 357 343 336 335 328 336
331 327 319 324 323 170 125 78 21 19 358 300 304 265 339 329 7 23 47 106 161 161 198 247 270 53 352 75 76 90 356 324 284 304 315 285 294 300 351 333 329 323 335 332
332 333 329 332 81 60 76 80 3 2 37 353 319 329 307 310 340 359 19 228 270 147 270 270 37 23 41 57 65 346 347 332 303 311 315 342 2 319 320 323 316 322 316 331
331 336 102 88 93 104 51 351 10 353 99 85 66 277 2 359 327 339 346 17 17 310 249 358 61 16 51 67 343 337 335 332 314 345 327 262 287 306 327 333 336 345 351 347
354 34 105 62 39 51 253 335 63 19 114 147 85 78 275 359 296 250 347 69 354 282 43 68 76 13 51 342 319 342 343 342 304 319 320 330 343 345 349 352 355 355 350 349
37 53 53 48 350 303 2 8 26 15 335 37 97 36 294 44 345 314 8 22 303 324 313 86 68 78 120 333 317 341 345 339 345 338 352 350 352 352 350 355 352 352 348 345
51 37 106 219 350 61 31 35 71 319 16 350 16 123 279 330 54 266 50 255 293 359 262 109 77 73 312 338 352 353 352 350 1 352 348 348 343 345 346 350 355 354 356 355
184 139 75 38 40 36 81 332 324 66 240 351 348 291 232 292 54 78 324 219 34 251 336 73 53 275 322 344 333 342 354 353 360 4 358 352 357 352 347 348 353 353 351 354
52 69 38 53 310 43 101 245 306 359 349 352 357 313 222 332 109 60 28 313 233 323 43 75 213 324 337 330 324 335 353 358 359 360 358 356 354 360 360 351 349 346 352 354
100 109 348 119 309 247 181 174 181 90 49 321 235 257 213 248 62 150 294 254 14 5 34 262 270 296 315 325 319 333 340 351 353 352 348 352 354 348 352 358 348 350 358 351
124 90 211 195 163 55 90 90 95 15 331 21 2 307 88 317 25 100 354 356 7 139 312 34 331 325 323 328 330 326 332 335 337 339 351 356 352 353 343 342 341 349 352 360
72 46 94 346 80 319 31 22 353 321 24 16 57 257 50 327 90 47 182 114 237 210 355 356 335 349 337 332 327 322 322 323 329 329 349 356 355 346 326 322 349 343 346 352
70 309 11 71 72 121 136 143 246 10 78 182 95 85 218 339 56 54 355 181 36 334 359 358 43 335 315 316 324 333 332 326 335 320 330 354 339 327 2 3 338 341 344 334